SBCY Airport Information

Runway Information
Runway 17 Length 7546 ft width 148 ft
Elevation 0 ft Threshold 0 ft Heading 0
Runway 35 Length 7546 ft Width 148 ft
Elevation 0 ft Threshold 0 ft Heading 0
Airport Frequencies
Type APP Name CUIABA APP Frequency 119.4 MHZ
Type TWR Name CUIABA TWR Frequency 118.1 MHZ
Airport Navaids
Type VOR-DME Name Cuiaba Frequency 113700 KHZ
Type NDB Name Cuiaba Frequency 380 KHZ
Airport Weather Information & NOTAM
ADDS - METARS form results

(0132 UTC 19 August 2018)
 
METAR text: SBCY 190100Z 06002KT CAVOK 26/13 Q1014
Conditions at: SBCY (CUIABA/MARECHAL , BR) observed 0100 UTC 19 August 2018
Temperature: 26.0°C (79°F)
Dewpoint: 13.0°C (55°F) [RH = 45%]
Pressure (altimeter): 29.94 inches Hg (1014.0 mb)
Winds: from the ENE (60 degrees) at 2 MPH (2 knots; 1.0 m/s)
Visibility: 6 or more miles (10+ km)
Ceiling: ceiling and visibility are OK
Clouds: unknown
Weather: no significant weather observed at this time